Voltar ao catálogo

STARLINK-4513

AtivoComunicaçõesVLEO
NORAD 53548·PAYLOAD·🇺🇸 United States

Lançado Aug 19, 2022 de Cape Canaveral Space Force Station

Loading…

Próximas Passagens (próximas 24 horas)

TLE

AtualizadoSource: CelesTrak SupGP

Época: Sep 15, 2026, 01:55 UTC

1 53548C 22101X   26258.08034722  .00010958  00000+0  68714-3 0  2589
2 53548  53.1594 293.2841 0001243  89.9062  32.7969 15.08833384    17

Acompanhe STARLINK-4513 em tempo real com AllMySat

Download on the App Store